DW6399 Weather Reports


time (UTC)temp
C
wind
direction
speed
KPH
gust
KPH
rain 1hr
cm
rain 24hr
cm
rain mn
cm
humidity
%
barometer
mb
20260902233603 6 0 0.0 0.0 0.00 0.00 0.00 95 1001.7
20260902232704 6 0 0.0 0.0 0.00 0.00 0.00 95 1001.8
20260902231804 6 0 0.0 0.0 0.00 0.00 0.00 95 1001.8
20260902230904 6 0 0.0 0.0 0.00 0.00 0.00 95 1001.8
20260902230004 6 0 0.0 0.0 0.00 0.00 0.00 95 1001.9
20260902225425 6 0 0.0 0.0 0.00 0.00 0.00 95 1002.0
20260902224504 6 0 0.0 0.0 0.00 0.00 0.00 94 1002.0
20260902223603 6 0 0.0 0.0 0.00 0.00 0.00 95 1001.9
20260902222704 6 0 0.0 0.0 0.00 0.00 0.00 94 1002.0
20260902221804 6 0 0.0 0.0 0.00 0.00 0.00 95 1002.0
20260902220904 6 0 0.0 0.0 0.00 0.00 0.00 94 1002.1
20260902220003 6 0 0.0 0.0 0.00 0.00 0.00 94 1002.2
20260902215424 6 0 0.0 0.0 0.00 0.00 0.00 95 1002.2
20260902214503 6 0 0.0 0.0 0.00 0.00 0.00 94 1002.3
20260902213603 6 0 0.0 0.0 0.00 0.03 0.00 94 1002.3
20260902212703 6 0 0.0 0.0 0.00 0.03 0.00 94 1002.3
20260902211803 6 278 0.0 1.6 0.00 0.03 0.00 94 1002.4
20260902210903 6 278 0.0 1.6 0.00 0.03 0.00 94 1002.4
20260902210026 6 278 0.0 1.6 0.00 0.03 0.00 94 1002.5
20260902205404 6 0 0.0 0.0 0.00 0.03 0.03 94 1002.5
20260902204503 6 278 0.0 1.6 0.00 0.03 0.03 93 1002.6
20260902203625 6 278 0.0 1.6 0.00 0.03 0.03 93 1002.6
20260902202703 6 278 0.0 1.6 0.00 0.03 0.03 93 1002.6
20260902201803 6 278 0.0 1.6 0.00 0.03 0.03 94 1002.7
20260902200924 6 278 1.6 3.2 0.00 0.03 0.03 93 1002.7
20260902200003 6 278 1.6 3.2 0.00 0.03 0.03 93 1002.6
20260902195403 6 278 1.6 3.2 0.00 0.03 0.03 93 1002.7
20260902194503 6 278 1.6 3.2 0.00 0.03 0.03 93 1002.7
20260902193603 7 278 1.6 4.8 0.00 0.03 0.03 93 1002.6
20260902192704 6 0 0.0 0.0 0.00 0.03 0.03 92 1002.6
20260902191803 7 0 0.0 0.0 0.00 0.03 0.03 92 1002.5
20260902190903 7 0 0.0 0.0 0.00 0.03 0.03 92 1002.5
20260902190004 7 0 0.0 0.0 0.00 0.03 0.03 91 1002.5
20260902185424 7 0 0.0 0.0 0.00 0.03 0.03 91 1002.5
20260902184504 7 278 0.0 1.6 0.00 0.03 0.03 91 1002.5
20260902183603 8 278 0.0 3.2 0.00 0.03 0.03 91 1002.5
20260902182703 8 278 1.6 3.2 0.00 0.03 0.03 91 1002.5
20260902181825 8 278 4.8 4.8 0.00 0.03 0.03 91 1002.6
20260902180903 8 278 4.8 6.4 0.00 0.03 0.03 91 1002.6
20260902180006 8 278 3.2 4.8 0.00 0.03 0.03 90 1002.7
20260902175403 9 278 3.2 4.8 0.00 0.03 0.03 90 1002.8
20260902174503 9 278 3.2 4.8 0.00 0.03 0.03 90 1002.7
20260902173603 10 278 3.2 4.8 0.00 0.03 0.03 89 1002.8
20260902172703 10 278 3.2 4.8 0.00 0.03 0.03 88 1002.8
20260902171803 10 278 3.2 4.8 0.00 0.03 0.03 87 1002.8
20260902170903 11 278 3.2 4.8 0.00 0.03 0.03 87 1002.9
20260902170003 11 278 3.2 4.8 0.00 0.03 0.03 85 1002.8
20260902165403 12 278 3.2 4.8 0.00 0.03 0.03 84 1002.8
20260902164503 13 276 3.2 4.8 0.00 0.03 0.03 80 1002.9
20260902163603 14 271 3.2 6.4 0.00 0.03 0.03 77 1002.8
20260902162703 15 282 3.2 9.7 0.00 0.03 0.03 74 1002.8
20260902161803 15 284 3.2 6.4 0.00 0.03 0.03 75 1002.8
20260902160903 16 286 4.8 9.7 0.00 0.03 0.03 70 1002.8
20260902160005 16 284 6.4 11.3 0.00 0.03 0.03 69 1002.9
20260902155403 16 283 6.4 14.5 0.00 0.03 0.03 69 1002.9
20260902154503 16 274 4.8 14.5 0.00 0.08 0.03 68 1002.8
20260902153624 16 279 3.2 6.4 0.00 0.46 0.03 69 1002.9
20260902152703 16 266 4.8 14.5 0.00 0.46 0.03 69 1002.9
20260902151803 16 281 6.4 16.1 0.00 0.46 0.03 68 1002.9
20260902150903 16 280 6.4 14.5 0.00 0.46 0.03 67 1002.8
20260902150003 16 281 4.8 14.5 0.00 0.46 0.03 69 1002.8
20260902145403 17 273 4.8 12.9 0.00 0.46 0.03 68 1002.9
20260902144503 17 283 8.0 14.5 0.00 0.46 0.03 68 1002.8
20260902143624 17 290 6.4 16.1 0.00 0.46 0.03 69 1002.9
20260902142705 17 284 8.0 16.1 0.00 0.46 0.03 68 1002.8
20260902141803 17 270 4.8 17.7 0.00 0.46 0.03 68 1002.8
20260902140903 17 277 4.8 16.1 0.00 0.46 0.03 69 1002.8
20260902140004 17 266 4.8 12.9 0.00 0.46 0.03 70 1002.8
20260902135404 17 246 4.8 12.9 0.00 0.46 0.03 70 1002.7
20260902134503 17 286 6.4 17.7 0.00 0.46 0.03 70 1002.8
20260902133603 17 265 4.8 17.7 0.00 0.46 0.03 69 1002.9
20260902132703 17 218 4.8 17.7 0.00 0.46 0.03 72 1002.8
20260902131803 17 293 6.4 14.5 0.00 0.46 0.03 71 1002.8
20260902130903 17 296 8.0 19.3 0.00 0.46 0.03 72 1002.9
20260902130003 16 290 6.4 12.9 0.00 0.46 0.03 73 1002.9
20260902125403 16 291 8.0 17.7 0.00 0.46 0.03 73 1002.9
20260902124504 17 282 8.0 17.7 0.00 0.46 0.03 72 1003.0
20260902123603 17 236 4.8 12.9 0.00 0.46 0.03 71 1003.0
20260902122703 17 277 6.4 17.7 0.00 0.46 0.03 73 1003.0
20260902121824 17 281 8.0 16.1 0.00 0.46 0.03 71 1003.0
20260902120903 17 245 6.4 16.1 0.00 0.46 0.03 71 1003.0
20260902120003 17 280 9.7 22.5 0.00 0.46 0.03 69 1003.0
20260902115403 17 282 8.0 19.3 0.00 0.46 0.03 72 1003.0
20260902114503 16 267 8.0 20.9 0.00 0.46 0.03 74 1003.0
20260902113603 16 282 6.4 16.1 0.00 0.46 0.03 73 1003.0
20260902112703 16 274 4.8 14.5 0.00 0.46 0.03 75 1003.1
20260902111803 16 275 6.4 14.5 0.00 0.46 0.03 73 1003.0
20260902110903 16 284 8.0 14.5 0.00 0.46 0.03 74 1003.1
20260902110006 16 277 4.8 12.9 0.00 0.46 0.03 73 1003.0
20260902105403 16 216 4.8 12.9 0.00 0.46 0.03 76 1003.0
20260902104503 16 250 6.4 17.7 0.00 0.46 0.03 74 1003.1
20260902103603 16 283 8.0 19.3 0.00 0.46 0.03 74 1003.2
20260902102703 16 279 6.4 14.5 0.00 0.46 0.03 74 1003.1
20260902101803 16 267 6.4 17.7 0.00 0.46 0.03 74 1003.1
20260902100903 16 269 6.4 17.7 0.00 0.46 0.03 75 1003.1
20260902100003 16 269 6.4 14.5 0.00 0.46 0.03 75 1003.1
20260902095403 16 203 4.8 14.5 0.00 0.46 0.03 77 1003.1
20260902094503 15 229 6.4 16.1 0.00 0.46 0.03 79 1003.2
20260902093624 15 274 6.4 19.3 0.00 0.46 0.03 79 1003.2
20260902092724 15 181 4.8 12.9 0.00 0.46 0.03 83 1003.1
20260902091803 15 167 6.4 12.9 0.00 0.46 0.03 85 1003.1
20260902090903 14 189 4.8 14.5 0.00 0.46 0.03 85 1003.1
20260902090004 14 231 4.8 12.9 0.00 0.46 0.03 86 1003.1
20260902085403 14 178 4.8 16.1 0.00 0.46 0.03 87 1003.2
20260902084524 13 205 3.2 12.9 0.00 0.46 0.03 89 1003.1
20260902083603 13 204 4.8 12.9 0.00 0.46 0.03 89 1003.1
20260902082703 13 226 3.2 11.3 0.00 0.46 0.03 91 1003.1
20260902081824 13 207 4.8 12.9 0.00 0.46 0.03 92 1003.2
20260902080903 13 199 6.4 16.1 0.00 0.46 0.03 95 1003.0
20260902080003 12 201 3.2 11.3 0.00 0.46 0.03 96 1003.0
20260902075403 12 219 3.2 11.3 0.00 0.46 0.03 96 1003.0
20260902074503 12 214 3.2 12.9 0.00 0.46 0.03 96 1003.1
20260902073603 12 210 4.8 11.3 0.00 0.46 0.03 96 1003.0
20260902072703 12 194 4.8 9.7 0.00 0.46 0.03 96 1003.0
20260902071803 11 211 3.2 9.7 0.00 0.46 0.03 96 1002.9
20260902070903 11 218 3.2 11.3 0.00 0.46 0.03 96 1002.9
20260902070005 11 182 3.2 9.7 0.00 0.46 0.03 96 1002.9
20260902065403 11 204 4.8 11.3 0.00 0.46 0.03 97 1002.9
20260902064524 11 197 3.2 9.7 0.00 0.46 0.03 97 1002.8
20260902063603 11 200 4.8 11.3 0.00 0.46 0.03 96 1002.8
20260902062703 11 201 4.8 11.3 0.00 0.46 0.03 96 1002.7
20260902061803 11 166 3.2 9.7 0.00 0.46 0.03 96 1002.7
20260902060903 11 176 3.2 8.0 0.00 0.46 0.03 96 1002.6
20260902060024 11 181 3.2 8.0 0.00 0.46 0.03 97 1002.6
20260902055403 11 184 3.2 8.0 0.00 0.46 0.03 97 1002.6
20260902054503 11 200 4.8 11.3 0.00 0.46 0.03 96 1002.5
20260902053603 11 175 3.2 9.7 0.00 0.46 0.03 96 1002.4
20260902052703 10 175 1.6 9.7 0.00 0.46 0.03 96 1002.5
20260902051824 10 199 3.2 9.7 0.00 0.46 0.03 96 1002.4
20260902050903 10 211 4.8 9.7 0.00 0.46 0.03 96 1002.4
20260902050024 10 199 3.2 11.3 0.00 0.46 0.03 96 1002.4
20260902045403 10 204 3.2 11.3 0.00 0.46 0.03 96 1002.4
20260902044503 10 203 3.2 9.7 0.00 0.46 0.03 96 1002.4
20260902043603 10 184 3.2 9.7 0.00 0.46 0.03 96 1002.4
20260902042724 10 187 3.2 9.7 0.00 0.46 0.03 96 1002.3
20260902041803 10 199 1.6 9.7 0.00 0.46 0.03 96 1002.4
20260902040903 10 218 3.2 11.3 0.00 0.46 0.03 96 1002.4
20260902040003 10 287 1.6 4.8 0.00 0.46 0.03 96 1002.3
20260902035403 10 201 3.2 9.7 0.00 0.46 0.03 96 1002.3
20260902034503 10 205 1.6 9.7 0.00 0.46 0.03 96 1002.3
20260902033603 10 187 4.8 9.7 0.00 0.46 0.03 96 1002.4
20260902032703 10 180 1.6 8.0 0.00 0.46 0.03 96 1002.4
20260902031803 10 178 3.2 9.7 0.00 0.46 0.03 96 1002.4
20260902030903 10 177 3.2 8.0 0.00 0.46 0.03 96 1002.4
20260902030024 10 175 1.6 6.4 0.00 0.46 0.03 96 1002.4
20260902025403 10 175 1.6 6.4 0.00 0.46 0.03 96 1002.4
20260902024503 10 175 1.6 4.8 0.00 0.46 0.03 96 1002.4
20260902023603 10 175 1.6 9.7 0.00 0.46 0.03 96 1002.4
20260902022703 10 175 1.6 3.2 0.00 0.46 0.03 96 1002.3
20260902021803 10 175 1.6 4.8 0.00 0.46 0.03 96 1002.4
20260902020924 10 175 1.6 4.8 0.00 0.46 0.03 96 1002.4
20260902020003 10 174 1.6 8.0 0.00 0.46 0.03 96 1002.4
20260902015403 10 174 1.6 8.0 0.00 0.46 0.03 96 1002.4
20260902014503 10 173 1.6 8.0 0.00 0.46 0.03 96 1002.4
20260902013603 10 173 1.6 4.8 0.00 0.46 0.03 96 1002.5
20260902012703 10 173 1.6 3.2 0.00 0.46 0.03 96 1002.5
20260902011803 10 173 0.0 3.2 0.00 0.46 0.03 96 1002.6
20260902010903 10 173 1.6 4.8 0.00 0.46 0.03 96 1002.7
20260902010024 10 173 1.6 3.2 0.00 0.46 0.03 96 1002.6
20260902005403 10 173 1.6 4.8 0.00 0.46 0.03 96 1002.7
20260902004503 10 173 3.2 4.8 0.00 0.46 0.03 96 1002.7
20260902003603 10 173 1.6 4.8 0.00 0.46 0.03 96 1002.6
20260902002703 10 173 1.6 8.0 0.00 0.46 0.03 95 1002.7
20260902001803 10 173 3.2 4.8 0.00 0.46 0.03 96 1002.7
20260902000903 10 173 3.2 4.8 0.00 0.46 0.03 96 1002.7
20260902000003 10 173 1.6 4.8 0.00 0.46 0.03 96 1002.7
20260901235424 10 173 1.6 3.2 0.00 0.46 0.03 96 1002.7